Flag for China Weather past 2 weeks in Tsingtao, China

Now
61 °F

Passing clouds.


Feels Like: 61 °F
Forecast: 52 / 60 °F
Wind: 8 mph from North

Location: Qingdao Airport


UV Index: 7 (High)

Visibility: N/A


Pressure: 30.09 "Hg

Humidity: 59%

Dew point: 46 °F

Location of TsingtaoLocation

Historic Weather in Tsingtao

°F

Tsingtao temperature yesterday

Maximum temperature yesterday: 59 °F (at 3:00 AM)
Minimum temperature yesterday: 54 °F (at 9:00 PM)
Average temperature yesterday: 57 °F

Past Weeks' High & Low Weather Summary

 TemperatureHumidityPressure
High77 °F (Apr 15, 1:00 PM)88% (Apr 10, 2:00 AM)30.27 "Hg (Apr 10, 2:00 AM)
Low37 °F (Apr 4, 2:00 AM)9% (Apr 3, 3:00 PM)29.80 "Hg (Apr 4, 3:00 PM)
Average57 °F53%30.05 "Hg
* Reported Apr 3 8:00 AM — Apr 18 8:00 AM, Tsingtao, Weather by CustomWeather, © 2014

Note: Actual official high and low records may vary slightly from our data, if they occured in-between our weather recording intervals... More about our weather records

Advertising

Historic Weather Conditions — Data for Previous 24 hours

 ConditionsComfort  
Time TempWeatherWind HumidityBarometerVisibility
8:00 AM
Apr 18
57 °FFog.6 mph77%30.09 "Hg3 mi
7:00 AM54 °FFog.3 mph88%30.09 "Hg3 mi
6:00 AM50 °FFog.1 mph88%30.07 "Hg2 mi
5:00 AM50 °FFog.1 mph88%30.07 "Hg2 mi
4:00 AM50 °FFog.1 mph88%30.04 "Hg2 mi
3:00 AM52 °FFog.1 mph88%30.04 "Hg3 mi
2:00 AM52 °FFog.1 mph88%30.01 "Hg3 mi
1:00 AM52 °FPassing clouds.1 mph82%30.01 "Hg4 mi
12:00 AM54 °FPassing clouds.1 mph77%29.98 "HgN/A
11:00 PM
Apr 17
54 °FClear.1 mph82%29.98 "Hg10 mi
10:00 PM54 °FClear.8 mph82%29.98 "Hg10 mi
9:00 PM54 °FClear.8 mph88%29.98 "Hg10 mi
8:00 PM55 °FPassing clouds.3 mph82%29.95 "HgN/A
7:00 PM55 °FPartly cloudy.8 mph88%29.92 "HgN/A
6:00 PM57 °FBroken clouds.8 mph82%29.89 "HgN/A
5:00 PM57 °FMore clouds than sun.8 mph82%29.86 "HgN/A
4:00 PM57 °FMore clouds than sun.10 mph82%29.83 "HgN/A
3:00 PM59 °FBroken clouds.13 mph82%29.83 "HgN/A
2:00 PM57 °FLight rain. Fog.10 mph88%29.83 "Hg3 mi
1:00 PM57 °FOvercast.8 mph88%29.86 "HgN/A
12:00 PM57 °FLight rain. More clouds than sun.8 mph88%29.86 "HgN/A
11:00 AM57 °FLight rain. Mostly cloudy.8 mph82%29.86 "HgN/A
10:00 AM57 °FLight rain. More clouds than sun.8 mph88%29.83 "HgN/A
9:00 AM57 °FLight rain. Fog.6 mph88%29.86 "Hg3 mi
Weather by CustomWeather, © 2014

See weather overview